User: anonymous   Login
Location: Unspecified
(0.0000°N, 0.0000°E)
Time: 09:00:09
(UTC+00:00)
Language:

ONEWEB-0291 - Orbit

View from above orbital plane
View from above orbital plane
View from above satellite
View from above satellite

Ground track
Ground track

The orbit is defined by the following mean orbital elements,

1 49081U          26145.38242120 +.00000000 +00000-0 +92112-4 0 00004
2 49081  87.9161  10.3965 0001810  96.7563 263.3774 13.17651919    01
Epoch (UTC): 25 May 2026 09:10:41
Eccentricity: 0.0001810
inclination: 87.9161°
perigee height: 1192 km
apogee height: 1195 km
right ascension of ascending node: 10.3965°
argument of perigee: 96.7563°
revolutions per day: 13.17651919
mean anomaly at epoch: 263.3774°

The dashed part of the orbit path shows where the satellite is in the earth's shadow,  

DLR